[[{"header":{"parameterUnit":"m.s-1","parameterCategory":1,"la1":30.2991,"la2":30.254,"lo1":-89.0895,"lo2":-89.0444,"dy":0.0017,"dx":0.0017,"nx":28,"ny":28,"refTime":"2025-07-28T09:00:00:Z","depth":0,"parameterNumber":2,"parameterNumberName":"U-component_of_WINDS"},"data":[0,0,0,0,0,0,0,0,0,0,0,0,0,0,0,0,0,0,0,0,0,0,0,0,0,0,0,0,0,0,0,0,0,0,0,0,0,0,0,0,0,0,0,0,0,0,0,0,0,0,0,0,0,0,0,0,0,0,0.9471,0.9472,0,0.9601,0.9602,0.9604,0.9589,0.9587,0.9585,0.9583,0.972,0.9726,0.9731,0,0,0,0,0,0,0,0,0,0,0,0,0,0.9214,0.9218,0.9471,0.9473,0.9474,0.9601,0.9603,0.9604,0.959,0.9587,0.9585,0.9582,0.9718,0.9725,0.9732,0,0,0,0,0,0,0,0,0,0,0,0,0,0.9333,0.922,0.9471,0.9482,0.9484,0.96,0.9603,0.9605,0.959,0.9587,0.9584,0.9581,0.9716,0.9724,0.9733,0.9847,0,0,0.9758,0.9762,0,0,0,0,0,0,0,0,0.9326,0.9342,0.9479,0.9481,0.9484,0.9576,0.9562,0.9686,0.9591,0.955,0.9583,0.958,0.9675,0.9686,0.9718,0.9853,0.9859,0.9759,0.9764,0.9768,0.977,0,0,0,0,0,0,0,0.9318,0.9337,0.9522,0.9481,0.9484,0.9482,0.9495,0.9585,0.9629,0.9554,0.9553,0.9568,0.9676,0.971,0.9721,0.9861,0.9759,0.9766,0.9771,0.9775,1.0098,1.0101,0,0,0,0,0,0,0.9306,0.933,0.9518,0.9526,0.9396,0.9489,0.9504,0.955,0.9628,0.9636,0.9571,0.9567,0.9697,0.9711,0.9726,0.9866,0.9768,0.9775,0.978,1.0095,1.0099,1.0103,0,0,0,0,0,0,0.9301,0.9323,0.9513,0.9428,0.9452,0.9497,0.9548,0.9554,0.9588,0.964,0.9648,0.9597,0.9695,0.9714,0.9817,0.9871,0.9779,0.9787,1.009,1.0096,1.0101,1.0147,0,0,0,0,0,0,0.9293,0.9321,0.9364,0.9429,0.9456,0.9601,0.9551,0.9559,0.9602,0.9598,0.9668,0.9676,0.9694,0.9804,0.9825,0.9881,0.9793,1.0086,1.0093,1.0099,1.0141,1.0153,1.0164,0,0,0,0,0,0.9284,0.9373,0.9367,0.9389,0.9511,0.9604,0.962,0.9638,0.9606,0.9651,0.9684,0.9674,0.9861,0.9815,0.9838,0.9897,1.0083,1.0091,1.0099,1.0136,1.0151,1.0163,0,0,0,0,0,0,0.9314,0.9381,0.9375,0.9487,0.954,0.9602,0.9658,0.9653,0.9717,0.9712,0.9732,0.9748,0.9852,0.9884,0.9832,1.0012,0.9968,0.9981,0.9988,1.0003,1.0014,1.0005,0.98,0,0,0,0,0,0.9334,0.9403,0.9458,0.9551,0.9578,0.9613,0.9655,0.9664,0.972,0.9743,0.9784,0.984,0.9911,0.9958,1.0027,1.0144,1.0161,1.0196,1.0208,1.0217,1.0229,1.0295,1.0312,1.0129,1.0129,1.0129,0,0,0.9375,0.942,0.9463,0.9558,0.96,0.9673,0.9632,0.971,0.9765,0.9755,0.9855,0.9887,0.9951,1.0062,1.0113,1.0092,1.0282,1.0227,1.0234,1.0241,1.0305,1.0323,1.0338,1.0135,1.0134,1.0133,0,0,0.9488,0.9528,0.9611,0.9654,0.9717,0.974,0.976,0.9823,0.9844,0.9944,0.9938,1.0003,1.0125,1.0172,1.0211,1.0341,1.0335,1.0363,1.0424,1.0488,1.0503,1.0516,1.0564,1.0581,1.0374,1.0374,1.0374,0,0.9532,0.964,0.9654,0.9734,0.9777,0.9769,0.9854,0.9895,0.9979,1.0009,0.9984,1.0138,1.018,1.0303,1.0334,1.0366,1.0391,1.0356,1.0499,1.0512,1.0525,1.0571,1.0589,1.0377,1.0377,1.0376,1.0376,0,0.9692,0.9767,0.9826,0.9906,0.9955,1.0037,1.0065,1.0114,1.0118,1.0144,1.0247,1.0297,1.0376,1.0405,1.0411,1.053,1.0515,1.0494,1.045,1.0545,1.0589,1.0607,1.0382,1.0381,1.038,1.0379,0,0,0.983,0.9916,0.9938,0.9974,1.0044,1.0103,1.0184,1.026,1.0303,1.036,1.043,1.0533,1.0515,1.056,1.057,1.0626,1.0728,1.0599,1.0601,1.0623,1.0865,1.0882,1.0902,1.0723,1.0727,1.0729,1.086,0,0.9951,1.0095,1.0111,1.024,1.031,1.0303,1.0375,1.0426,1.0452,1.0516,1.0545,1.0619,1.0588,1.0615,1.067,1.0704,1.0778,1.0695,1.0791,1.0795,1.0778,1.0925,1.0943,1.1065,1.0877,1.088,1.0882,0,1.0113,1.0175,1.031,1.0371,1.0401,1.0465,1.0536,1.0597,1.0655,1.0671,1.072,1.0723,1.0809,1.0759,1.0879,1.0822,1.0862,1.0885,1.089,1.0902,1.0846,1.0944,1.1103,1.1123,1.0909,1.0907,1.0905,0,1.0203,1.032,1.0416,1.0447,1.052,1.0565,1.0597,1.0652,1.0697,1.076,1.079,1.0862,1.0902,1.0958,1.0981,1.0942,1.11,1.1052,1.1117,1.1117,1.1153,1.1151,1.1324,1.1174,1.1174,1.1174,1.1173,0,1.0339,1.0423,1.0458,1.0518,1.0612,1.0629,1.0722,1.0752,1.0801,1.0868,1.0866,1.0928,1.0953,1.1021,1.1039,1.1136,1.1154,1.117,1.1174,1.1172,1.117,1.1201,1.1194,1.1178,1.1177,1.1176,1.1176,0,1.0457,1.0483,1.0588,1.0648,1.0664,1.0732,1.0783,1.0842,1.0866,1.095,1.0971,1.1011,1.109,1.1117,1.1213,1.1225,1.1339,1.1335,1.132,1.1322,1.1386,1.1381,1.1587,1.1616,1.1445,1.1446,1.1448,0,1.0543,1.0608,1.0674,1.0718,1.0751,1.0822,1.0868,1.0887,1.0935,1.1006,1.1056,1.1134,1.1198,1.1325,1.1363,1.1437,1.1436,1.1503,1.1447,1.1443,1.144,1.1437,1.1445,1.1515,1.1516,1.1518,1.1519,0,1.0695,1.0705,1.077,1.0841,1.0895,1.0951,1.1006,1.1043,1.107,1.1124,1.1204,1.1253,1.1351,1.1429,1.1505,1.1539,1.1535,1.1536,1.1555,1.1555,1.1544,1.1553,1.1351,1.1532,1.153,1.1529,1.1529,1.1528,1.0802,1.0859,1.0915,1.0988,1.1031,1.1082,1.114,1.1171,1.1238,1.1319,1.1325,1.1413,1.147,1.157,1.1608,1.1677,1.1659,1.1686,1.1694,1.1701,1.1707,1.1531,1.1691,1.169,1.169,1.169,1.169,0,1.0955,1.099,1.1057,1.1134,1.1192,1.118,1.124,1.129,1.1366,1.1419,1.1481,1.1574,1.165,1.1693,1.1769,1.1817,1.1817,1.1836,1.1834,1.1843,1.1718,1.1695,1.1835,1.1835,1.1835,1.1835,1.1835,1.1835,1.1042,1.1139,1.1155,1.1274,1.1309,1.1393,1.1429,1.1477,1.1519,1.1622,1.1685,1.1712,1.1762,1.1841,1.1911,1.1922,1.1951,1.1973,1.1983,1.1866,1.1851,1.1837,1.1816,1.1979,1.1979,1.2102,1.2103,1.2104]},{"header":{"parameterUnit":"m.s-1","parameterCategory":1,"la1":30.2991,"la2":30.254,"lo1":-89.0895,"lo2":-89.0444,"dy":0.0017,"dx":0.0017,"nx":28,"ny":28,"refTime":"2025-07-28T09:00:00:Z","depth":0,"parameterNumber":3,"parameterNumberName":"V-component_of_WINDS"},"data":[0,0,0,0,0,0,0,0,0,0,0,0,0,0,0,0,0,0,0,0,0,0,0,0,0,0,0,0,0,0,0,0,0,0,0,0,0,0,0,0,0,0,0,0,0,0,0,0,0,0,0,0,0,0,0,0,0,0,1.0397,1.0396,0,1.0288,1.0287,1.0286,1.018,1.0178,1.0177,1.0176,1.0061,1.0059,1.0057,0,0,0,0,0,0,0,0,0,0,0,0,0,1.051,1.0508,1.0397,1.0396,1.0395,1.0288,1.0287,1.0285,1.018,1.0178,1.0176,1.0175,1.0061,1.0059,1.0057,0,0,0,0,0,0,0,0,0,0,0,0,0,1.0437,1.0508,1.0398,1.0329,1.0322,1.0289,1.0287,1.0285,1.018,1.0178,1.0176,1.0174,1.0062,1.0059,1.0057,1.0081,0,0,1.0048,1.0047,0,0,0,0,0,0,0,0,1.0441,1.0433,1.0341,1.0334,1.0326,1.0245,1.0284,1.0216,1.0181,1.0234,1.0176,1.0173,1.0124,1.0116,1.01,1.0076,1.0071,1.0048,1.0047,1.0045,1.0045,0,0,0,0,0,0,0,1.0446,1.0437,1.0354,1.0339,1.033,1.0302,1.029,1.0271,1.0191,1.0229,1.0221,1.021,1.0119,1.0102,1.0096,1.0069,1.0048,1.0046,1.0044,1.0043,1.0055,1.0057,0,0,0,0,0,0,1.0462,1.0442,1.0357,1.0351,1.038,1.0302,1.0288,1.0273,1.0191,1.0177,1.0212,1.0205,1.0108,1.0099,1.0092,1.0112,1.0045,1.0043,1.0041,1.0053,1.0055,1.0058,0,0,0,0,0,0,1.0465,1.0456,1.0362,1.0394,1.038,1.0302,1.0287,1.0272,1.0255,1.0178,1.0163,1.021,1.0106,1.0095,1.0084,1.0106,1.0042,1.0039,1.0051,1.0054,1.0056,1.0154,0,0,0,0,0,0,1.0469,1.0458,1.0467,1.0395,1.0379,1.0358,1.0288,1.0271,1.0251,1.0242,1.0172,1.0159,1.0104,1.0088,1.0081,1.0101,1.0037,1.0048,1.0052,1.0056,1.0149,1.016,1.017,0,0,0,0,0,1.0473,1.0499,1.0468,1.0459,1.0389,1.0359,1.035,1.0287,1.0254,1.0262,1.0212,1.0161,1.0106,1.0088,1.0079,1.0099,1.0047,1.0051,1.0055,1.0144,1.0158,1.017,0,0,0,0,0,0,1.0576,1.0489,1.0453,1.0457,1.0416,1.0341,1.035,1.0304,1.0271,1.0264,1.0186,1.0171,1.0167,1.0132,1.0114,1.0116,1.0069,1.0072,1.0139,1.0152,1.0162,1.017,1.0035,0,0,0,0,0,1.0599,1.0583,1.0507,1.0518,1.0499,1.0428,1.0413,1.0368,1.0322,1.0304,1.0253,1.021,1.0181,1.0165,1.0136,1.0143,1.0125,1.0152,1.0163,1.0172,1.0175,1.0173,1.0183,1.0072,1.0072,1.0072,0,0,1.0646,1.0597,1.0591,1.0537,1.05,1.0483,1.0415,1.04,1.0386,1.0301,1.0287,1.0248,1.0194,1.0191,1.0187,1.0162,1.0202,1.0178,1.0186,1.0183,1.0178,1.0189,1.0198,1.0075,1.0074,1.0074,0,0,1.0723,1.0686,1.0689,1.0653,1.0598,1.055,1.0552,1.0483,1.0454,1.0438,1.0373,1.0354,1.031,1.0272,1.0248,1.0309,1.026,1.0302,1.0357,1.0356,1.0364,1.0372,1.039,1.0399,1.0305,1.0305,1.0305,0,1.0789,1.0762,1.0696,1.0685,1.0662,1.0585,1.0586,1.0554,1.0492,1.0477,1.0449,1.0389,1.0347,1.0333,1.0348,1.0332,1.0328,1.0309,1.0369,1.0375,1.0381,1.0398,1.0406,1.031,1.031,1.0309,1.0309,0,1.0844,1.0826,1.0835,1.0777,1.0755,1.0751,1.0682,1.0667,1.0623,1.0578,1.0561,1.0508,1.0465,1.0459,1.0417,1.0438,1.0423,1.0384,1.0334,1.0398,1.0413,1.0419,1.0318,1.0316,1.0314,1.0313,0,0,1.0983,1.0887,1.0891,1.0863,1.0796,1.078,1.0771,1.0729,1.0717,1.0676,1.0664,1.0627,1.0589,1.0561,1.0513,1.0513,1.056,1.0472,1.0469,1.0488,1.0577,1.0606,1.0615,1.0528,1.0529,1.053,1.058,0,1.1046,1.1026,1.0965,1.0963,1.0944,1.0869,1.086,1.0817,1.0774,1.075,1.0702,1.0676,1.0629,1.0611,1.0608,1.0556,1.0577,1.0552,1.0513,1.0513,1.0527,1.0623,1.0653,1.0704,1.0586,1.0587,1.0588,0,1.1118,1.1083,1.1078,1.101,1.0999,1.0993,1.0948,1.0928,1.0876,1.0844,1.0813,1.0759,1.0742,1.0698,1.0672,1.0656,1.0637,1.0609,1.0609,1.0601,1.0553,1.0615,1.0719,1.0725,1.0596,1.0596,1.0595,0,1.1216,1.1167,1.1157,1.1136,1.1056,1.1053,1.1019,1.0966,1.0944,1.0904,1.0889,1.0848,1.0825,1.0794,1.073,1.0704,1.071,1.0661,1.068,1.0682,1.0684,1.0684,1.0783,1.0676,1.0676,1.0675,1.0675,0,1.1293,1.1292,1.12,1.1194,1.119,1.1119,1.1117,1.1076,1.1029,1.1011,1.0945,1.0929,1.0847,1.0822,1.0772,1.0756,1.0747,1.0718,1.0705,1.0723,1.0726,1.0708,1.0702,1.0677,1.0677,1.0677,1.0676,0,1.1401,1.134,1.1324,1.1249,1.1231,1.1231,1.1166,1.1156,1.1109,1.1087,1.1078,1.1003,1.097,1.0903,1.0851,1.0817,1.0811,1.0789,1.0829,1.082,1.0843,1.0841,1.0932,1.0938,1.083,1.0831,1.0832,0,1.1453,1.1451,1.1376,1.136,1.1329,1.1305,1.1282,1.1211,1.119,1.1129,1.1126,1.1087,1.1052,1.1001,1.0941,1.0899,1.0874,1.0908,1.0867,1.0884,1.087,1.0871,1.0868,1.0917,1.0919,1.092,1.0921,0,1.155,1.152,1.149,1.1449,1.1424,1.1388,1.1348,1.1338,1.1258,1.1237,1.1202,1.1175,1.1121,1.1082,1.1032,1.0994,1.0943,1.0935,1.0936,1.0954,1.0976,1.0962,1.0852,1.0933,1.0931,1.0931,1.093,1.093,1.163,1.1623,1.1569,1.1537,1.15,1.1464,1.145,1.1401,1.1371,1.1322,1.1282,1.125,1.1195,1.1122,1.1088,1.106,1.1035,1.1039,1.1039,1.1041,1.1047,1.0983,1.105,1.105,1.105,1.1049,1.1049,0,1.1721,1.1682,1.1654,1.1601,1.1575,1.1531,1.1484,1.1465,1.1438,1.1392,1.1358,1.1316,1.1278,1.1214,1.117,1.1159,1.1134,1.1149,1.1148,1.114,1.1073,1.1074,1.117,1.117,1.117,1.117,1.117,1.117,1.1765,1.1751,1.1714,1.1679,1.164,1.1609,1.1585,1.155,1.1513,1.147,1.1438,1.1397,1.1342,1.1293,1.1254,1.1236,1.1221,1.1244,1.1218,1.1156,1.1145,1.1134,1.1135,1.1242,1.1242,1.1287,1.1287,1.1287]}]]